STARLINK-3078, 49134

Orbit data source: Space-Track

STARLINK-3078, 49134 is a payload satellite owned by SpaceX/Seattle (US) in LEO that was launched on Tue, 14 Sep 2021 UTC via an FALCON 9 launch vehicle from the Air Force Western Test Range (AFWTR). Payload-class satellites include a variety of spacecraft equipped with specific instruments for various scientific and technological missions. These include communications satellites like Starlink; space stations such as the ISS; scientific satellites like the Hubble; Earth observation satellites from companies like Planet Labs, Umbra, and HawkEye 360; GPS; miniature CubeSats for education and research; and military/defense satellites.

Loading next visibility...
Identifier
49134, 2021-082E
Orbit
LEO
Country
Flag of USUS
Related business
Manufacturer
SpaceX/Seattle
Mission
Operational Commercial Communications
Bus & Motor
STARLINK, Unknown motor
Mass
297 kg wet, ~275 kg dry
Launch date (UTC)
2021-09-14 (5 years ago)
Launch vehicle
FALCON 9
Launch site
Air Force Western Test Range (AFWTR)
Object type
Payload
Rocket body
Debris
Shape & HBR
Box + 1 Pan, 10.1 m
Radar Cross Section
13.562 m², Large (>1 m²)

Expand to show TLE details & history
Last TLE update: 1 week ago

TLE from 1 week ago
0 STARLINK-3078
1 49134U 21082E   26155.10553309 -.00000088  00000-0  38994-6 0  9995
2 49134  70.0002  76.5748 0003006 257.2071 102.8753 14.98330869260120
Epoch: 2026-06-04T02:31Z
TLE epoch observation values (Epoch: 2026-06-04T02:31:58.058Z)
Latitude
0.00002°
Longitude
146.02833°
Altitude
574.943 km
Speed
7.573 km/s
True Right ascension
05h 06m 17s
True Declination
0° 00' 00"
Sunlit
Object was in daylight at epoch
Visualization orbit readout
Latitude
Unknown
Longitude
Unknown
Altitude
Unknown
Speed
Unknown
Apparent Right ascension
Unknown
Apparent Declination
Unknown
Sunlit
N/A
Visualization observer readout
Local Sidereal Time
18:20:15
Azimuth
Unknown
Elevation
Unknown
Doppler factor
Unknown
Orbital elements
Apogee altitude
572.09 km
Perigee altitude
567.913 km
Semi-major axis
6,948.138 km
Eccentricity
0.0003
Inclination
70.0002°
RAAN
76.5748°
Arg. of periapsis
257.2071°
True anomaly
102.90888°
Mean anomaly
102.8753°
Eccentric anomaly
102.89209°
Mean motion
3.74749 °/min
Orbital period
96.06 mins
BSTAR
3.8994e-7
Loading maneuver chart data...
Computing Atmospheric mass density...
Loading historical data...
Loading historical data...
Loading historical data...
Loading historical data...
Loading historical data...
Loading historical data...
Loading historical data...

Documentation

Showing up to 5 results
|